LRBO Weather Reports


time (UTC)temp
C
wind
direction
speed
KPH
gust
KPH
rain 1hr
cm
rain 24hr
cm
rain mn
cm
humidity
%
barometer
mb
20260906051854 17 20 17.7 0.0 0.00 0.00 0.00 68 1019.0
20260906050515 -17 0.0 0.0 0.00 0.00 0.00
20260906045015 -17 0.0 0.0 0.00 0.00 0.00
20260906043503 -17 0.0 0.0 0.00 0.00 0.00
20260906042016 -17 0.0 0.0 0.00 0.00 0.00
20260906040413 16 30 17.7 0.0 0.00 0.00 0.00 88 1018.0
20260906034915 -17 0.0 0.0 0.00 0.00 0.00
20260906033515 -17 0.0 0.0 0.00 0.00 0.00
20260906032017 -17 0.0 0.0 0.00 0.00 0.00
20260906030515 -17 0.0 0.0 0.00 0.00 0.00
20260906024921 17 30 29.0 0.0 0.00 0.00 0.00 83 1018.0
20260906023354 -17 0.0 0.0 0.00 0.00 0.00
20260906021900 -17 0.0 0.0 0.00 0.00 0.00
20260906020355 -17 0.0 0.0 0.00 0.00 0.00
20260906014855 -17 0.0 0.0 0.00 0.00 0.00
20260906013516 -17 0.0 0.0 0.00 0.00 0.00
20260906011853 -17 0.0 0.0 0.00 0.00 0.00
20260906010353 -17 0.0 0.0 0.00 0.00 0.00
20260906005015 -17 0.0 0.0 0.00 0.00 0.00
20260906003525 -17 0.0 0.0 0.00 0.00 0.00
20260906002016 -17 0.0 0.0 0.00 0.00 0.00
20260906000505 -17 0.0 0.0 0.00 0.00 0.00
20260905234904 -17 0.0 0.0 0.00 0.00 0.00
20260905233353 -17 0.0 0.0 0.00 0.00 0.00
20260905232017 -17 0.0 0.0 0.00 0.00 0.00
20260905230426 -17 0.0 0.0 0.00 0.00 0.00
20260905225017 -17 0.0 0.0 0.00 0.00 0.00
20260905223407 -17 0.0 0.0 0.00 0.00 0.00
20260905222000 -17 0.0 0.0 0.00 0.00 0.00
20260905220515 -17 0.0 0.0 0.00 0.00 0.00
20260905215014 -17 0.0 0.0 0.00 0.00 0.00
20260905213354 -17 0.0 0.0 0.00 0.00 0.00
20260905211850 -17 0.0 0.0 0.00 0.00 0.00
20260905210353 -17 0.0 0.0 0.00 0.00 0.00
20260905204904 23 260 11.3 0.0 0.00 0.00 0.00 50 1014.0
20260905203353 23 260 11.3 0.0 0.00 0.00 0.00 50 1014.0
20260905201853 23 260 11.3 0.0 0.00 0.00 0.00 50 1014.0
20260905200515 -17 0.0 0.0 0.00 0.00 0.00
20260905195008 -17 0.0 0.0 0.00 0.00 0.00
20260905193354 25 260 11.3 0.0 0.00 0.00 0.00 47 1014.0
20260905191923 25 260 11.3 0.0 0.00 0.00 0.00 47 1014.0
20260905190354 -17 0.0 0.0 0.00 0.00 0.00
20260905184851 27 250 17.7 0.0 0.00 0.00 0.00 42 1013.0
20260905183359 27 250 17.7 0.0 0.00 0.00 0.00 42 1013.0
20260905181850 27 250 17.7 0.0 0.00 0.00 0.00 42 1013.0
20260905180350 27 250 17.7 0.0 0.00 0.00 0.00 42 1013.0
20260905174847 28 250 17.7 0.0 0.00 0.00 0.00 37 1013.0
20260905173354 28 250 17.7 0.0 0.00 0.00 0.00 37 1013.0
20260905171855 28 250 17.7 0.0 0.00 0.00 0.00 37 1013.0
20260905170354 28 250 17.7 0.0 0.00 0.00 0.00 37 1013.0
20260905164854 31 250 25.7 0.0 0.00 0.00 0.00 31 1012.0
20260905163355 31 250 25.7 0.0 0.00 0.00 0.00 31 1012.0
20260905161852 31 250 25.7 0.0 0.00 0.00 0.00 31 1012.0
20260905160354 31 250 25.7 0.0 0.00 0.00 0.00 31 1012.0
20260905154904 32 250 25.7 0.0 0.00 0.00 0.00 28 1013.0
20260905153353 32 250 25.7 0.0 0.00 0.00 0.00 28 1013.0
20260905151854 32 250 25.7 0.0 0.00 0.00 0.00 28 1013.0
20260905150354 32 250 25.7 0.0 0.00 0.00 0.00 28 1013.0
20260905144847 32 250 29.0 0.0 0.00 0.00 0.00 30 1013.0
20260905143353 32 250 29.0 0.0 0.00 0.00 0.00 30 1013.0
20260905141851 32 250 29.0 0.0 0.00 0.00 0.00 30 1013.0
20260905140350 32 250 29.0 0.0 0.00 0.00 0.00 30 1013.0
20260905135013 -17 0.0 0.0 0.00 0.00 0.00
20260905133354 33 230 25.7 0.0 0.00 0.00 0.00 30 1013.0
20260905131856 33 230 25.7 0.0 0.00 0.00 0.00 30 1013.0
20260905130415 33 230 25.7 0.0 0.00 0.00 0.00 30 1013.0
20260905124848 32 210 22.5 0.0 0.00 0.00 0.00 30 1014.0
20260905123354 32 210 22.5 0.0 0.00 0.00 0.00 30 1014.0
20260905121921 32 210 22.5 0.0 0.00 0.00 0.00 30 1014.0
20260905120354 32 210 22.5 0.0 0.00 0.00 0.00 30 1014.0
20260905114854 32 220 17.7 0.0 0.00 0.00 0.00 30 1015.0
20260905113353 32 220 17.7 0.0 0.00 0.00 0.00 30 1015.0
20260905111912 32 220 17.7 0.0 0.00 0.00 0.00 30 1015.0
20260905110353 32 220 17.7 0.0 0.00 0.00 0.00 30 1015.0
20260905104854 32 270 11.3 0.0 0.00 0.00 0.00 29 1015.0
20260905103354 32 270 11.3 0.0 0.00 0.00 0.00 29 1015.0
20260905101853 32 270 11.3 0.0 0.00 0.00 0.00 29 1015.0
20260905100354 32 270 11.3 0.0 0.00 0.00 0.00 29 1015.0
20260905095015 -17 0.0 0.0 0.00 0.00 0.00
20260905093353 31 230 17.7 0.0 0.00 0.00 0.00 33 1016.0
20260905091854 31 230 17.7 0.0 0.00 0.00 0.00 33 1016.0
20260905090354 31 230 17.7 0.0 0.00 0.00 0.00 33 1016.0
20260905084853 28 4.8 0.0 0.00 0.00 0.00 33 1016.0
20260905083354 28 4.8 0.0 0.00 0.00 0.00 33 1016.0
20260905081853 28 4.8 0.0 0.00 0.00 0.00 33 1016.0
20260905080354 28 4.8 0.0 0.00 0.00 0.00 33 1016.0
20260905074853 -17 0.0 0.0 0.00 0.00 0.00
20260905073402 -17 0.0 0.0 0.00 0.00 0.00
20260905071854 -17 0.0 0.0 0.00 0.00 0.00
20260905070354 -17 0.0 0.0 0.00 0.00 0.00
20260905064854 -17 0.0 0.0 0.00 0.00 0.00
20260905063354 -17 0.0 0.0 0.00 0.00 0.00
20260905061854 -17 0.0 0.0 0.00 0.00 0.00
20260905060355 -17 0.0 0.0 0.00 0.00 0.00
20260905054854 17 230 8.0 0.0 0.00 0.00 0.00 68 1016.0
20260905053354 17 230 8.0 0.0 0.00 0.00 0.00 68 1016.0